When you browse on this site, cookies collect data to enhance your experience and personalize the content and advertising you see.
Visit our Privacy Policy to learn more. By continuing to use the site, you agree to this use of cookies and data.
  • In Latvia
  • List of Countries
  • For 7 days
  • Water Temperature
  • Satellite Maps
  • Weather Map
  • Weather Widgets
  • user-avatar
    Login

    Hourly Weather Kostkow

    Today, 18 June, Tuesday

    Time Temperature Precipitation Wind Pressure Humidity
    00:00 +18°C° 0 mm 1 mps 749 mmHg 87%
    01:00 +18°C° 0 mm 1 mps 749 mmHg 89%
    02:00 +16°C° 0 mm 1 mps 749 mmHg 92%
    03:00 +16°C° 0 mm 2 mps 749 mmHg 92%
    04:00 +16°C° 0 mm 2 mps 749 mmHg 93%
    05:00 +16°C° 0 mm 2 mps 749 mmHg 94%
    06:00 +17°C° 0 mm 2 mps 749 mmHg 90%
    07:00 +18°C° 0 mm 3 mps 749 mmHg 86%
    08:00 +20°C° 0 mm 3 mps 749 mmHg 82%
    09:00 +21°C° 0 mm 3 mps 749 mmHg 78%
    10:00 +22°C° 0 mm 3 mps 749 mmHg 74%
    11:00 +24°C° 0 mm 3 mps 749 mmHg 70%
    12:00 +24°C° 0 mm 3 mps 749 mmHg 69%
    13:00 +25°C° 0 mm 3 mps 748 mmHg 69%
    14:00 +25°C° 0 mm 3 mps 748 mmHg 68%
    15:00 +25°C° 0 mm 3 mps 748 mmHg 69%
    16:00 +25°C° 0 mm 3 mps 748 mmHg 71%
    17:00 +25°C° 0 mm 4 mps 747 mmHg 73%
    18:00 +24°C° 0.1 mm 3 mps 747 mmHg 77%
    19:00 +24°C° 0.1 mm 3 mps 747 mmHg 81%
    20:00 +22°C° 0.1 mm 3 mps 747 mmHg 86%
    21:00 +21°C° 0 mm 3 mps 747 mmHg 88%
    22:00 +20°C° 0 mm 3 mps 747 mmHg 91%
    23:00 +19°C° 0 mm 3 mps 747 mmHg 93%

    Tomorrow, 19 June, Wednesday

    Time Temperature Precipitation Wind Pressure Humidity
    00:00 +19°C° 0 mm 3 mps 747 mmHg 93%
    01:00 +18°C° 0 mm 4 mps 747 mmHg 94%
    02:00 +18°C° 0 mm 4 mps 747 mmHg 94%
    03:00 +18°C° 0 mm 4 mps 746 mmHg 94%
    04:00 +18°C° 0 mm 4 mps 746 mmHg 94%
    05:00 +18°C° 0 mm 4 mps 746 mmHg 94%
    06:00 +19°C° 0 mm 4 mps 746 mmHg 91%
    07:00 +20°C° 0 mm 4 mps 746 mmHg 88%
    08:00 +21°C° 0 mm 4 mps 746 mmHg 85%
    09:00 +23°C° 0.5 mm 4 mps 746 mmHg 83%
    10:00 +25°C° 0.5 mm 4 mps 746 mmHg 81%
    11:00 +26°C° 0.5 mm 4 mps 745 mmHg 79%
    12:00 +27°C° 0.8 mm 4 mps 745 mmHg 74%
    13:00 +28°C° 0.8 mm 4 mps 745 mmHg 69%
    14:00 +29°C° 0.8 mm 3 mps 744 mmHg 64%
    15:00 +29°C° 0.3 mm 4 mps 744 mmHg 67%
    16:00 +28°C° 0.3 mm 4 mps 744 mmHg 69%
    17:00 +28°C° 0.3 mm 4 mps 744 mmHg 71%
    18:00 +27°C° 0.3 mm 4 mps 744 mmHg 76%
    19:00 +25°C° 0.3 mm 3 mps 743 mmHg 81%
    20:00 +24°C° 0.3 mm 3 mps 743 mmHg 87%
    21:00 +22°C° 0.1 mm 3 mps 743 mmHg 88%
    22:00 +21°C° 0.1 mm 2 mps 744 mmHg 88%
    23:00 +21°C° 0.1 mm 2 mps 744 mmHg 89%

    Day after tomorrow, 20 June, Thursday

    Time Temperature Precipitation Wind Pressure Humidity
    00:00 +20°C° 0 mm 2 mps 743 mmHg 90%
    01:00 +20°C° 0 mm 2 mps 743 mmHg 91%
    02:00 +20°C° 0 mm 2 mps 743 mmHg 91%
    03:00 +20°C° 0 mm 1 mps 743 mmHg 91%
    04:00 +20°C° 0 mm 1 mps 743 mmHg 91%
    05:00 +20°C° 0 mm 1 mps 743 mmHg 91%
    06:00 +21°C° 0 mm 1 mps 743 mmHg 87%
    07:00 +23°C° 0 mm 1 mps 744 mmHg 83%
    08:00 +24°C° 0 mm 1 mps 744 mmHg 80%
    09:00 +26°C° 0 mm 1 mps 744 mmHg 74%
    10:00 +27°C° 0 mm 1 mps 744 mmHg 69%
    11:00 +28°C° 0 mm 1 mps 744 mmHg 64%
    12:00 +29°C° 0 mm 2 mps 744 mmHg 62%
    13:00 +29°C° 0 mm 2 mps 744 mmHg 60%
    14:00 +30°C° 0 mm 2 mps 743 mmHg 58%
    15:00 +30°C° 0.1 mm 2 mps 743 mmHg 59%
    16:00 +30°C° 0.1 mm 2 mps 743 mmHg 59%
    17:00 +30°C° 0.1 mm 2 mps 743 mmHg 60%
    18:00 +28°C° 0.5 mm 1 mps 743 mmHg 66%
    19:00 +27°C° 0.5 mm 1 mps 743 mmHg 71%
    20:00 +26°C° 0.5 mm 1 mps 743 mmHg 76%
    21:00 +25°C° 0 mm 1 mps 743 mmHg 79%
    22:00 +24°C° 0 mm 1 mps 743 mmHg 81%
    23:00 +23°C° 0 mm 1 mps 743 mmHg 83%

    21 June, Friday

    Time Temperature Precipitation Wind Pressure Humidity
    00:00 +22°C° 0 mm 1 mps 743 mmHg 85%
    01:00 +22°C° 0 mm 1 mps 743 mmHg 86%
    02:00 +21°C° 0 mm 1 mps 743 mmHg 88%
    03:00 +21°C° 0 mm 1 mps 743 mmHg 88%
    04:00 +20°C° 0 mm 2 mps 743 mmHg 87%
    05:00 +19°C° 0 mm 2 mps 743 mmHg 87%
    06:00 +21°C° 0 mm 2 mps 744 mmHg 84%
    07:00 +24°C° 0 mm 2 mps 744 mmHg 80%
    08:00 +25°C° 0 mm 2 mps 744 mmHg 77%
    09:00 +27°C° 0 mm 2 mps 744 mmHg 72%
    10:00 +28°C° 0 mm 2 mps 744 mmHg 67%
    11:00 +29°C° 0 mm 2 mps 744 mmHg 62%
    12:00 +30°C° 0.1 mm 2 mps 744 mmHg 59%
    13:00 +31°C° 0.1 mm 2 mps 744 mmHg 57%
    14:00 +31°C° 0.1 mm 2 mps 743 mmHg 55%
    15:00 +31°C° 0.8 mm 2 mps 743 mmHg 59%
    16:00 +30°C° 0.8 mm 2 mps 743 mmHg 63%
    17:00 +30°C° 0.8 mm 1 mps 743 mmHg 68%
    18:00 +28°C° 0.4 mm 2 mps 743 mmHg 72%
    19:00 +27°C° 0.4 mm 2 mps 743 mmHg 76%
    20:00 +25°C° 0.4 mm 2 mps 743 mmHg 81%
    21:00 +24°C° 0 mm 2 mps 743 mmHg 83%
    22:00 +23°C° 0 mm 2 mps 744 mmHg 84%
    23:00 +23°C° 0 mm 2 mps 744 mmHg 86%

    22 June, Saturday

    Time Temperature Precipitation Wind Pressure Humidity
    00:00 +21°C° 0.1 mm 2 mps 744 mmHg 88%
    01:00 +21°C° 0.1 mm 2 mps 744 mmHg 90%
    02:00 +20°C° 0.1 mm 2 mps 744 mmHg 93%
    03:00 +20°C° 0.4 mm 3 mps 744 mmHg 94%
    04:00 +20°C° 0.4 mm 3 mps 745 mmHg 95%
    05:00 +19°C° 0.4 mm 4 mps 745 mmHg 97%
    06:00 +20°C° 0.1 mm 4 mps 745 mmHg 95%
    07:00 +20°C° 0.1 mm 4 mps 746 mmHg 93%
    08:00 +21°C° 0.1 mm 4 mps 746 mmHg 92%
    09:00 +21°C° 0 mm 4 mps 746 mmHg 90%
    10:00 +21°C° 0 mm 4 mps 747 mmHg 89%
    11:00 +21°C° 0 mm 4 mps 747 mmHg 88%
    12:00 +22°C° 0 mm 4 mps 747 mmHg 86%
    13:00 +22°C° 0 mm 4 mps 747 mmHg 84%
    14:00 +22°C° 0 mm 4 mps 747 mmHg 82%
    15:00 +22°C° 0.4 mm 3 mps 747 mmHg 83%
    16:00 +24°C° 0.4 mm 3 mps 747 mmHg 83%
    17:00 +24°C° 0.4 mm 3 mps 747 mmHg 84%
    18:00 +22°C° 0.4 mm 3 mps 747 mmHg 86%
    19:00 +21°C° 0.4 mm 3 mps 747 mmHg 88%
    20:00 +20°C° 0.4 mm 3 mps 747 mmHg 89%
    21:00 +20°C° 0.5 mm 3 mps 747 mmHg 91%
    22:00 +19°C° 0.5 mm 2 mps 747 mmHg 92%
    23:00 +19°C° 0.5 mm 2 mps 747 mmHg 93%

    23 June, Sunday

    Time Temperature Precipitation Wind Pressure Humidity
    00:00 +19°C° 0.9 mm 2 mps 747 mmHg 94%
    01:00 +19°C° 0.9 mm 2 mps 747 mmHg 95%
    02:00 +19°C° 0.9 mm 1 mps 747 mmHg 96%
    03:00 +18°C° 0.3 mm 2 mps 747 mmHg 97%
    04:00 +18°C° 0.3 mm 2 mps 747 mmHg 97%
    05:00 +18°C° 0.3 mm 2 mps 747 mmHg 97%
    06:00 +18°C° 0 mm 3 mps 747 mmHg 96%
    07:00 +19°C° 0 mm 3 mps 747 mmHg 94%
    08:00 +19°C° 0 mm 3 mps 747 mmHg 93%
    09:00 +20°C° 0 mm 3 mps 748 mmHg 91%
    10:00 +20°C° 0 mm 3 mps 748 mmHg 89%
    11:00 +20°C° 0 mm 3 mps 748 mmHg 87%
    12:00 +21°C° 0.1 mm 3 mps 748 mmHg 84%
    13:00 +22°C° 0.1 mm 3 mps 747 mmHg 81%
    14:00 +24°C° 0.1 mm 3 mps 747 mmHg 78%
    15:00 +24°C° 0 mm 3 mps 747 mmHg 76%
    16:00 +25°C° 0 mm 2 mps 747 mmHg 74%
    17:00 +25°C° 0 mm 2 mps 747 mmHg 72%
    18:00 +24°C° 0.1 mm 2 mps 747 mmHg 76%
    19:00 +23°C° 0.1 mm 2 mps 747 mmHg 80%
    20:00 +22°C° 0.1 mm 1 mps 747 mmHg 85%
    21:00 +21°C° 0 mm 1 mps 748 mmHg 88%
    22:00 +20°C° 0 mm 1 mps 748 mmHg 91%
    23:00 +20°C° 0 mm 1 mps 748 mmHg 94%
    Show more